Weather History for Alexandria, LA

Change the Weather History Date:

Saturday, March 3, 2012

  Actual Average Record
Temperature  
Mean Temperature 54 °F 56 °F  
Max Temperature 63 °F 67 °F 86 °F (1905)
Min Temperature 44 °F 45 °F 23 °F (1980)
Degree Days  
Heating Degree Days 11 10  
Month to date heating degree days 11 30  
Since 1 July heating degree days 1441 1695  
Cooling Degree Days 0 1  
Month to date cooling degree days 16 3  
Year to date cooling degree days 45 20  
Growing Degree Days 4 (Base 50)    
Moisture  
Dew Point 35 °F    
Average Humidity 45    
Maximum Humidity 62    
Minimum Humidity 27    
Precipitation  
Precipitation 0.01 in 0.16 in 2.48 in (1934)
Month to date precipitation 0.57 0.50  
Year to date precipitation 17.63 10.18  
Snow  
Snow 0.00 in - 0.00 in ()
Month to date snowfall 0.0  
Since 1 July snowfall 0.0  
Snow Depth 0.00 in    
Sea Level Pressure  
Sea Level Pressure 29.95 in    
Wind  
Wind Speed 10 mph (North)    
Max Wind Speed 22 mph    
Max Gust Speed 31 mph    
Visibility 10 miles    
Events Rain , Thunderstorm    
T = Trace of Precipitation, MM = Missing Value Source: NWS Daily Summary

Daily Weather History Graph

Daily Weather History Graph

Search for Another Location

Airport:

Trip Planner

Search our weather history database for the weather conditions in past years. The results will help you decide how hot, cold, wet, or windy it might be!

Date:

Astronomy

Mar. 03, 2012 Rise Set
Actual Time 6:34 AM CST 6:10 PM CST
Civil Twilight 6:09 AM CST 6:34 PM CST
Nautical Twilight 5:41 AM CST 7:02 PM CST
Astronomical Twilight 5:13 AM CST 7:30 PM CST
Moon 1:35 PM CST (3/3) 2:56 AM CST (3/3)
Length of Visible Light 12h 24m
Length of Day
11h 36m
Waxing Gibbous, 75% of the Moon is Illuminated
Mar 3
Waxing Gibbous
Mar 8
Full
Mar 14
Last Quarter
Mar 22
New
Mar 30
First Quarter

Hourly Weather History & Observations

Time (CST) Temp. Windchill Dew Point Humidity Pressure Visibility Wind Dir Wind Speed Gust Speed Precip Events Conditions
12:53 AM 62.1 °F - 48.9 °F 62% 29.79 in 10.0 mi North 9.2 mph - 0.01 in Rain Light Rain
1:13 AM 60.8 °F - 48.2 °F 63% 29.81 in 10.0 mi North 4.6 mph - N/A Thunderstorm Thunderstorm
1:28 AM 60.8 °F - 46.4 °F 59% 29.81 in 10.0 mi NE 6.9 mph - 0.00 in Rain Light Rain
1:53 AM 61.0 °F - 46.0 °F 58% 29.80 in 10.0 mi NNE 6.9 mph - 0.00 in   Overcast
2:53 AM 57.9 °F - 45.0 °F 62% 29.79 in 10.0 mi NE 17.3 mph 25.3 mph N/A   Overcast
3:53 AM 55.0 °F - 39.0 °F 55% 29.83 in 10.0 mi NNE 18.4 mph 28.8 mph N/A   Overcast
4:53 AM 53.1 °F - 39.9 °F 61% 29.88 in 10.0 mi NNE 17.3 mph 25.3 mph N/A   Overcast
5:53 AM 51.1 °F - 36.0 °F 56% 29.91 in 10.0 mi NNE 12.7 mph 19.6 mph N/A   Overcast
6:53 AM 48.9 °F - 33.1 °F 54% 29.94 in 10.0 mi NNE 13.8 mph 21.9 mph 0.00 in   Overcast
7:53 AM 48.9 °F - 35.1 °F 59% 29.96 in 10.0 mi North 12.7 mph 19.6 mph N/A   Overcast
8:53 AM 50.0 °F - 35.1 °F 57% 29.97 in 10.0 mi NNE 11.5 mph - N/A   Overcast
9:53 AM 54.0 °F - 34.0 °F 47% 29.98 in 10.0 mi North 10.4 mph 17.3 mph N/A   Mostly Cloudy
10:53 AM 53.1 °F - 32.0 °F 45% 29.99 in 10.0 mi NNE 6.9 mph 18.4 mph N/A   Overcast
11:53 AM 54.0 °F - 30.9 °F 41% 29.97 in 10.0 mi NNE 11.5 mph - N/A   Overcast
12:53 PM 53.1 °F - 28.9 °F 40% 29.97 in 10.0 mi North 13.8 mph 18.4 mph N/A   Partly Cloudy
1:53 PM 55.9 °F - 26.1 °F 32% 29.95 in 10.0 mi NNE 11.5 mph 20.7 mph N/A   Clear
2:53 PM 59.0 °F - 26.1 °F 28% 29.94 in 10.0 mi NNE 12.7 mph - N/A   Clear
3:53 PM 60.1 °F - 26.1 °F 27% 29.94 in 10.0 mi NNE 13.8 mph - N/A   Clear
4:53 PM 59.0 °F - 26.1 °F 28% 29.96 in 10.0 mi North 16.1 mph 23.0 mph N/A   Clear
5:53 PM 55.9 °F - 26.1 °F 32% 29.98 in 10.0 mi North 5.8 mph - N/A   Clear
6:53 PM 52.0 °F - 28.9 °F 41% 30.02 in 10.0 mi Calm Calm - N/A   Clear
7:53 PM 52.0 °F - 33.1 °F 49% 30.06 in 10.0 mi West 4.6 mph - N/A   Clear
8:53 PM 48.9 °F - 35.1 °F 59% 30.09 in 10.0 mi Calm Calm - N/A   Clear
9:53 PM 50.0 °F - 33.1 °F 52% 30.10 in 10.0 mi West 3.5 mph - 0.00 in Rain Light Rain
10:53 PM 46.0 °F 43.9 °F 34.0 °F 63% 30.12 in 10.0 mi West 4.6 mph - 0.00 in   Clear
11:53 PM 44.1 °F 42.5 °F 34.0 °F 68% 30.13 in 10.0 mi West 3.5 mph - N/A   Clear